Change the Weather History Date:

Friday, October 7, 2011

  Actual Average Record
Temperature  
Mean Temperature 63 °F -  
Max Temperature 80 °F 64 °F 87 °F (2007)
Min Temperature 46 °F 42 °F 27 °F (1952)
Degree Days  
Heating Degree Days 2    
Growing Degree Days 13 (Base 50)    
Moisture  
Dew Point 49 °F    
Average Humidity 62    
Maximum Humidity 94    
Minimum Humidity 30    
Precipitation  
Precipitation 0.00 in - - ()
Sea Level Pressure  
Sea Level Pressure 30.33 in    
Wind  
Wind Speed 2 mph (SSE)    
Max Wind Speed 9 mph    
Max Gust Speed -    
Visibility 8 miles    
Events      
Averages and records for this station are not official NWS values.
T = Trace of Precipitation, MM = Missing Value Source: NWS Daily Summary

Daily Weather History Graph

Daily Weather History Graph

Search for Another Location

Airport or City:

Trip Planner

Search our weather history database for the weather conditions in past years. The results will help you decide how hot, cold, wet, or windy it might be!

Date:

Astronomy

Oct. 07, 2011 Rise Set
Actual Time 7:45 AM EDT 7:14 PM EDT
Civil Twilight 7:17 AM EDT 7:42 PM EDT
Nautical Twilight 6:45 AM EDT 8:14 PM EDT
Astronomical Twilight 6:12 AM EDT 8:46 PM EDT
Moon 5:00 PM EDT (10/7) 3:29 AM EDT (10/7)
Length of Visible Light 12h 24m
Length of Day
11h 28m
Waxing Gibbous, 83% of the Moon is Illuminated
Oct 7
Waxing Gibbous
Oct 11
Full
Oct 19
Last Quarter
Oct 26
New
Nov 2
First Quarter

Hourly Weather History & Observations

Time (EDT) Temp. Dew Point Humidity Pressure Visibility Wind Dir Wind Speed Gust Speed Precip Events Conditions
12:05 AM 53.6 °F 50.0 °F 88% 30.30 in 7.0 mi Calm Calm - N/A   Clear
12:25 AM 53.6 °F 50.0 °F 88% 30.30 in 7.0 mi Calm Calm - N/A   Clear
12:45 AM 53.6 °F 50.0 °F 88% 30.30 in 10.0 mi Calm Calm - N/A   Clear
1:05 AM 51.8 °F 48.2 °F 88% 30.31 in 7.0 mi Calm Calm - N/A   Clear
1:45 AM 51.8 °F 48.2 °F 88% 30.30 in 7.0 mi Calm Calm - N/A   Clear
2:05 AM 51.8 °F 48.2 °F 88% 30.31 in 10.0 mi Calm Calm - N/A   Clear
2:25 AM 51.8 °F 50.0 °F 94% 30.31 in 10.0 mi Calm Calm - N/A   Clear
2:45 AM 50.0 °F 46.4 °F 87% 30.31 in 7.0 mi Calm Calm - N/A   Clear
3:05 AM 50.0 °F 46.4 °F 87% 30.31 in 10.0 mi Calm Calm - N/A   Clear
4:05 AM 50.0 °F 46.4 °F 87% 30.30 in 3.0 mi Calm Calm - N/A   Clear
4:45 AM 48.2 °F 46.4 °F 93% 30.31 in 2.0 mi Calm Calm - N/A   Clear
5:05 AM 48.2 °F 46.4 °F 93% 30.32 in 0.5 mi Calm Calm - N/A   Unknown
5:25 AM 48.2 °F 46.4 °F 93% 30.32 in 1.5 mi Calm Calm - N/A   Unknown
5:45 AM 48.2 °F 44.6 °F 87% 30.33 in 0.5 mi Calm Calm - N/A   Unknown
6:05 AM 48.2 °F 46.4 °F 93% 30.33 in 1.5 mi Calm Calm - N/A   Clear
6:25 AM 48.2 °F 44.6 °F 87% 30.34 in 0.5 mi Calm Calm - N/A   Unknown
7:05 AM 48.2 °F 46.4 °F 93% 30.35 in 2.5 mi Calm Calm - N/A   Clear
7:25 AM 48.2 °F 46.4 °F 93% 30.36 in 2.5 mi Calm Calm - N/A   Clear
8:05 AM 46.4 °F 44.6 °F 93% 30.37 in 0.2 mi Calm Calm - N/A   Unknown
8:45 AM 50.0 °F 48.2 °F 94% 30.38 in 5.0 mi Calm Calm - N/A   Clear
9:05 AM 51.8 °F 50.0 °F 94% 30.38 in 5.0 mi Calm Calm - N/A   Clear
9:25 AM 55.4 °F 51.8 °F 88% 30.39 in 5.0 mi Calm Calm - N/A   Clear
10:05 AM 62.6 °F 53.6 °F 72% 30.39 in 10.0 mi SSE 3.5 mph - N/A   Clear
10:25 AM 64.4 °F 53.6 °F 68% 30.39 in 10.0 mi South 4.6 mph - N/A   Clear
11:05 AM 68.0 °F 53.6 °F 60% 30.39 in 10.0 mi South 4.6 mph - N/A   Clear
11:25 AM 69.8 °F 53.6 °F 56% 30.39 in 10.0 mi South 6.9 mph - N/A   Clear
11:45 AM 71.6 °F 53.6 °F 53% 30.38 in 10.0 mi South 5.8 mph - N/A   Clear
12:05 PM 73.4 °F 53.6 °F 50% 30.38 in 10.0 mi South 5.8 mph - N/A   Clear
12:25 PM 73.4 °F 51.8 °F 47% 30.38 in 10.0 mi SSE 5.8 mph - N/A   Clear
12:45 PM 75.2 °F 50.0 °F 41% 30.37 in 10.0 mi South 5.8 mph - N/A   Clear
1:05 PM 77.0 °F 51.8 °F 41% 30.36 in 10.0 mi SSE 5.8 mph - N/A   Clear
1:25 PM 77.0 °F 50.0 °F 39% 30.36 in 10.0 mi South 6.9 mph - N/A   Clear
1:45 PM 78.8 °F 50.0 °F 36% 30.35 in 10.0 mi SSE 8.1 mph - N/A   Clear
2:05 PM 78.8 °F 48.2 °F 34% 30.35 in 10.0 mi South 5.8 mph - N/A   Clear
2:25 PM 78.8 °F 50.0 °F 36% 30.34 in 10.0 mi SE 5.8 mph - N/A   Clear
2:45 PM 78.8 °F 48.2 °F 34% 30.32 in 10.0 mi ESE 5.8 mph - N/A   Clear
3:05 PM 78.8 °F 48.2 °F 34% 30.32 in 10.0 mi SSE 8.1 mph - N/A   Clear
3:25 PM 80.6 °F 48.2 °F 32% 30.32 in 10.0 mi South 8.1 mph - N/A   Clear
4:05 PM 80.6 °F 46.4 °F 30% 30.31 in 10.0 mi SSE 9.2 mph - N/A   Clear
4:25 PM 80.6 °F 48.2 °F 32% 30.31 in 10.0 mi SSE 6.9 mph - N/A   Clear
4:45 PM 80.6 °F 48.2 °F 32% 30.31 in 10.0 mi SE 8.1 mph - N/A   Clear
5:05 PM 78.8 °F 48.2 °F 34% 30.31 in 10.0 mi SE 8.1 mph - N/A   Clear
5:25 PM 78.8 °F 48.2 °F 34% 30.31 in 10.0 mi SE 5.8 mph - N/A   Clear
5:45 PM 78.8 °F 48.2 °F 34% 30.31 in 10.0 mi SSE 8.1 mph - N/A   Clear
6:05 PM 78.8 °F 48.2 °F 34% 30.31 in 10.0 mi SE 6.9 mph - N/A   Clear
6:25 PM 77.0 °F 48.2 °F 36% 30.31 in 10.0 mi SE 8.1 mph - N/A   Clear
6:45 PM 75.2 °F 48.2 °F 38% 30.31 in 10.0 mi SE 4.6 mph - N/A   Clear
7:05 PM 75.2 °F 48.2 °F 38% 30.31 in 10.0 mi SE 3.5 mph - N/A   Clear
7:25 PM 73.4 °F 48.2 °F 41% 30.31 in 10.0 mi SE 3.5 mph - N/A   Clear
7:45 PM 71.6 °F 48.2 °F 43% 30.32 in 10.0 mi Calm Calm - N/A   Clear
8:05 PM 69.8 °F 48.2 °F 46% 30.32 in 10.0 mi ESE 3.5 mph - N/A   Clear
8:25 PM 69.8 °F 48.2 °F 46% 30.32 in 10.0 mi ESE 3.5 mph - N/A   Clear
8:45 PM 68.0 °F 48.2 °F 49% 30.32 in 10.0 mi ESE 4.6 mph - N/A   Clear
9:05 PM 68.0 °F 48.2 °F 49% 30.32 in 10.0 mi ESE 5.8 mph - N/A   Clear
9:25 PM 66.2 °F 50.0 °F 56% 30.33 in 10.0 mi ESE 4.6 mph - N/A   Clear
9:45 PM 66.2 °F 50.0 °F 56% 30.33 in 10.0 mi ESE 4.6 mph - N/A   Clear
10:45 PM 64.4 °F 50.0 °F 59% 30.33 in 10.0 mi SE 4.6 mph - N/A   Clear
11:05 PM 66.2 °F 50.0 °F 56% 30.33 in 10.0 mi SE 4.6 mph - N/A   Clear
11:25 PM 66.2 °F 50.0 °F 56% 30.33 in 10.0 mi SE 4.6 mph - N/A   Clear
11:45 PM 59.0 °F 50.0 °F 72% 30.33 in 10.0 mi Calm Calm - N/A   Clear